User: anonymous   Login
Location: Caltech
(34.1382°N, 118.1253°W)
Time: 00:14:03
(UTC-08:00)
Language:

SO-67 - Orbit

View from above orbital plane
View from above orbital plane
View from above satellite
View from above satellite

Ground track
Ground track

The orbit data is extracted from the following two-line orbital elements,

1 35870U 09049F   18017.43964984  .00005510  00000-0  79787-4 0  9992
2 35870  97.0920  37.4625 0003099  44.0431  66.4274 15.56293670466511
Epoch (UTC): 17 January 2018 10:33:05
Eccentricity: 0.0003099
inclination: 97.0920°
perigee height: 396 km
apogee height: 400 km
right ascension of ascending node: 37.4625°
argument of perigee: 44.0431°
revolutions per day: 15.56293670
mean anomaly at epoch: 66.4274°
orbit number at epoch: 46651

The dashed part of the orbit path shows where the satellite is in the earth's shadow,  

DLR